Location: Ay?beleni
(36.6500°N, 30.3000°E)
Time: 08:12:36
(UTC+00:00)

Cosmos 407 Rocket - Pass Details

Date: 09 April 2020
Orbit: 743 x 787 km, 74.0° (Epoch: 31 May)

Event Time Altitude Azimuth Distance (km) Brightness Sun altitude
Rises 17:19:31 0° 196° (SSW) 3,190 6.7 -10.8°
Reaches altitude 10° 17:21:52 10° 196° (SSW) 2,264 5.9 -11.2°
Maximum altitude 17:27:00 90° 121° (ESE) 752 3.4 -12.2°
Drops below altitude 10° 17:32:08 10° 18° (NNE) 2,263 6.0 -13.2°
Sets 17:34:30 0° 18° (NNE) 3,189 6.7 -13.6°
